Weather in Nychalakh

Russia / Sakha (Yakutia) Republic     69°56′06″N   146°12′32″E
temp.,
°C
wind,
m/s
gust,
m/s
humid.,
%
clouds,
%
prec.,
mm/h
press.,
hPa
HPBL,
m
20 april, tue
tue2023:00−12se3590100 0.0 102460
02:00−11ene3587100 0.0 102361
05:00−11e3686100 0.0 102277
08:00−9ene5888100 0.0 1020180
11:00−6ene6986100 0.0 1018394
14:00−5e5685100 0.0 1016438
17:00−4e3490100 0.1 1014329
20:00−4ene3494100 0.1 1013108
21 april, wed
wed2123:00−6e2297100 0.1 101325
02:00−12sse2210094 0.0 101310
05:00−14wsw22100100 0.1 10139
08:00−6wsw1196100 0.1 1013244
11:00−4nw1189100 0.1 1014377
14:00−4nnw4495100 0.5 1013290
17:00−4n4493100 1.4 1014343
20:00−6nnw4795100 0.2 1015252
22 april, thu
thu2223:00−7nnw5995100 0.6 1016328
02:00−8nw599588 0.6 1018384
05:00−9nw5109499 0.9 1019321
08:00−10nw51093100 0.3 1020414
11:00−10nw7987100 0.4 1021477
14:00−9nw6986100 0.0 1022527
17:00−9nw6985100 0.0 1022551
20:00−11wnw4989100 0.0 1023312
23 april, fri
fri2323:00−19w3310011 0.0 102423
02:00−23wsw3310069 0.0 102514
05:00−26sw22100100 0.0 10259
08:00−18ssw11955 0.0 102532
11:00−12ese22835 0.0 1025155
14:00−10e22785 0.0 1024275
17:00−9ene3380100 0.0 1024283
20:00−12ne3291100 0.0 102436
24 april, sat
sat2423:00−15ne3388100 0.0 102434
02:00−22nne229337 0.0 10249
05:00−25n11955 0.0 10259
08:00−16e00795 0.0 102531
11:00−11s11670 0.0 1024120
14:00−7s23690 0.0 1023271
17:00−6s34750 0.0 1022292
20:00−9sse35855 0.0 102145